2023�N�x�@��C������Ԃɂ�鑪�茋��,,,,,,,,,,,,,,,
,,,,,,,,,,,,,,,
�P�@����n�_,,,,,,,,,,,,,,,
�t����s���͌�(�t����s���͌˒�5-9-3),,,,,,,,,,,,,,,
,,,,,,,,,,,,,,,
�Q�@���Ԓl�i�m��l�j��2023�N11��2���`2023�N11��24��,,,,,,,,,,,,,,,
,,,,,,,,,,,,,,,
,�N,��,��,��,SO2,SPM,Ox,CO,NO,NO2,PM2.5,���x,���x,����,����
,,,,,ppm,mg/m3,ppm,ppm,ppm,ppm,��g/m3,��,%,�ő�,m/s
R5,2023,11,2,1,***,0.02,0.019,***,***,***,21,22.4,71.8,NE,0.9
R5,2023,11,2,2,0.001,0.02,0.019,0.3,0.002,0.012,17,21.2,76.1,ENE,0.9
R5,2023,11,2,3,0.001,0.019,0.02,0.2,0.001,0.01,16,20.6,73.5,E,0.8
R5,2023,11,2,4,0.001,0.017,0.017,0.2,0.001,0.011,16,20.1,73.8,ENE,0.7
R5,2023,11,2,5,0.001,0.017,0.015,0.2,0.001,0.012,17,19.4,76.8,ENE,0.4
R5,2023,11,2,6,0.001,0.016,0.012,0.2,0.002,0.016,15,19.2,75.7,NE,1
R5,2023,11,2,7,0.001,0.016,0.01,0.3,0.006,0.017,15,19.7,70.2,NE,1.4
R5,2023,11,2,8,0.001,0.017,0.016,0.3,0.005,0.013,13,21.6,60.7,ENE,2.2
R5,2023,11,2,9,0.001,0.019,0.017,0.3,0.012,0.016,14,25,44.8,NNW,0.7
R5,2023,11,2,10,0.001,0.021,0.023,0.3,0.012,0.02,13,28.4,41.8,NNW,0.9
R5,2023,11,2,11,0.002,0.02,0.039,0.3,0.006,0.017,17,26.6,43.7,NNW,1.5
R5,2023,11,2,12,0.002,0.022,0.052,0.3,0.006,0.014,16,27.8,42.2,NW,1.9
R5,2023,11,2,13,0.001,0.025,0.057,0.3,0.004,0.012,16,***,51,WNW,2.4
R5,2023,11,2,14,0.002,0.025,0.061,0.3,0.003,0.011,16,***,53.7,NW,2.6
R5,2023,11,2,15,0.001,0.027,0.063,0.3,0.001,0.009,19,***,53.4,WNW,2.4
R5,2023,11,2,16,0.001,0.028,0.063,0.3,0.001,0.008,16,***,***,***,***
R5,2023,11,2,17,0.001,0.023,0.06,0.3,0.001,0.01,23,***,***,***,***
R5,2023,11,2,18,0.001,0.027,0.052,0.3,0.001,0.012,22,22.2,62.1,WNW,1.8
R5,2023,11,2,19,0.001,0.028,0.045,0.3,0.001,0.014,21,20.9,68,NW,0.7
R5,2023,11,2,20,0.001,0.03,0.028,0.5,0.002,0.023,21,19.2,75.4,SE,0.7
R5,2023,11,2,21,0.001,0.031,0.014,0.6,0.003,0.03,24,18.2,79.3,E,0.6
R5,2023,11,2,22,0.001,0.036,0.009,0.6,0.004,0.03,26,16.7,83.6,ESE,0.7
R5,2023,11,2,23,0.001,0.03,0.013,0.5,0.003,0.02,25,16.2,87.4,SE,0.7
R5,2023,11,2,24,0.001,0.029,0.014,0.4,0.002,0.017,24,16.1,87.4,NE,0.6
R5,2023,11,3,1,0.001,0.027,0.021,0.3,0.001,0.012,24,15.9,83.7,NNE,1.5
R5,2023,11,3,2,0.001,0.028,0.02,0.3,0.001,0.01,21,15.7,82.4,ENE,0.7
R5,2023,11,3,3,0.001,0.028,0.016,0.3,0.001,0.01,22,14.6,86.8,CALM,0.1
R5,2023,11,3,4,0.001,0.027,0.01,0.3,0.006,0.015,19,14.3,86.5,CALM,0
R5,2023,11,3,5,0.001,0.026,0.009,0.3,0.002,0.014,20,14.1,86.1,CALM,0.1
R5,2023,11,3,6,0.001,0.029,0.009,0.3,0.004,0.015,21,13.9,82.1,NE,0.5
R5,2023,11,3,7,0.001,0.025,0.006,0.3,0.006,0.018,16,14.3,74.8,NE,0.6
R5,2023,11,3,8,0.001,0.024,0.012,0.3,0.01,0.017,16,16.5,60.7,ENE,2
R5,2023,11,3,9,0.001,0.021,0.021,0.3,0.007,0.01,16,19.1,51.1,ENE,1.3
R5,2023,11,3,10,0.002,0.027,0.029,0.3,0.005,0.01,18,21.6,46.1,S,0.4
R5,2023,11,3,11,0.002,0.029,0.032,0.3,0.006,0.014,20,23.4,43.9,E,0.6
R5,2023,11,3,12,0.002,0.029,0.042,0.3,0.005,0.015,20,24.7,41.1,SW,1
R5,2023,11,3,13,0.002,0.024,0.061,0.4,0.002,0.012,19,25.7,38.9,W,2.1
R5,2023,11,3,14,0.002,0.028,0.069,0.4,0.002,0.012,23,26.1,40.4,WSW,1.7
R5,2023,11,3,15,0.006,0.032,0.068,0.8,0.002,0.017,20,26.1,41.2,WSW,1.5
R5,2023,11,3,16,0.01,0.035,0.06,1,0.002,0.027,27,25.4,47.3,WSW,1.5
R5,2023,11,3,17,0.004,0.033,0.06,0.5,0.001,0.019,28,23.4,55.5,WSW,0.8
R5,2023,11,3,18,0.002,0.032,0.045,0.6,0.003,0.027,30,22.1,62.6,S,0.4
R5,2023,11,3,19,0.003,0.039,0.048,0.6,0.001,0.024,30,20.7,69.4,ESE,0.6
R5,2023,11,3,20,0.001,0.038,0.045,0.6,0.001,0.021,31,19.4,77,CALM,0.1
R5,2023,11,3,21,0.001,0.043,0.029,0.8,0.002,0.023,37,18.3,78.3,ENE,1
R5,2023,11,3,22,0.001,0.036,0.032,0.6,0.002,0.02,31,17.6,78.8,ENE,0.6
R5,2023,11,3,23,0.001,0.035,0.034,0.5,0.001,0.014,29,17,80.2,ENE,1.3
R5,2023,11,3,24,0.002,0.038,0.028,0.5,0.001,0.015,29,16.2,84.4,CALM,0
R5,2023,11,4,1,0.001,0.038,0.026,0.5,0.002,0.016,32,15.9,85.3,SE,0.3
R5,2023,11,4,2,0.001,0.034,0.017,0.5,0.005,0.018,29,15.3,87.5,CALM,0.2
R5,2023,11,4,3,0.001,0.03,0.027,0.4,0.001,0.011,24,15.5,80.8,NE,0.8
R5,2023,11,4,4,0.001,0.027,0.03,0.3,0.001,0.009,25,15.3,78.7,NNE,0.5
R5,2023,11,4,5,0.001,0.03,0.021,0.4,0.001,0.01,26,14.3,84.6,CALM,0.1
R5,2023,11,4,6,0.001,0.031,0.017,0.4,0.002,0.014,22,14.4,81.4,CALM,0
R5,2023,11,4,7,0.001,0.03,0.012,0.4,0.007,0.019,22,14.7,76.1,NE,0.3
R5,2023,11,4,8,0.001,0.025,0.015,0.4,0.005,0.016,24,15.7,71.4,NE,1.5
R5,2023,11,4,9,0.003,0.032,0.019,0.4,0.009,0.018,23,18.1,58.1,SSW,0.3
R5,2023,11,4,10,0.002,0.03,0.024,0.4,0.009,0.017,22,19.8,55,NNW,0.8
R5,2023,11,4,11,0.002,0.03,0.039,0.3,0.004,0.014,21,21.3,52.4,ENE,0.5
R5,2023,11,4,12,0.002,0.031,0.052,0.3,0.004,0.015,20,23.9,51.1,WSW,1.2
R5,2023,11,4,13,0.002,0.03,0.06,0.3,0.003,0.012,24,23.9,51.9,SSE,0.6
R5,2023,11,4,14,0.001,0.026,0.068,0.3,0.002,0.007,21,24.9,44.8,WNW,1.3
R5,2023,11,4,15,0.002,0.026,0.071,0.3,0.002,0.01,21,25.4,45.5,W,1.6
R5,2023,11,4,16,0.001,0.029,0.068,0.3,0.002,0.01,24,24.5,50.1,WSW,0.8
R5,2023,11,4,17,0.001,0.029,0.062,0.4,0.002,0.012,24,23.3,59.7,W,1.3
R5,2023,11,4,18,0.001,0.042,0.053,0.5,0.002,0.018,34,22.1,67.2,WSW,1.2
R5,2023,11,4,19,0.001,0.044,0.053,0.5,0.001,0.018,36,21.2,69.6,CALM,0.1
R5,2023,11,4,20,0.001,0.044,0.034,0.6,0.002,0.021,37,19.5,76.6,ENE,0.8
R5,2023,11,4,21,0.001,0.039,0.028,0.5,0.001,0.018,31,19.2,77,SE,0.6
R5,2023,11,4,22,0.001,0.038,0.023,0.5,0.002,0.02,30,18.4,79.3,E,0.6
R5,2023,11,4,23,0.001,0.042,0.022,0.6,0.002,0.016,34,17.9,81.8,ENE,0.8
R5,2023,11,4,24,0.001,0.036,0.018,0.5,0.002,0.016,29,17.7,83.6,N,0.6
R5,2023,11,5,1,0.001,0.034,0.025,0.3,0.001,0.01,31,17.7,79.5,E,0.6
R5,2023,11,5,2,0.001,0.034,0.019,0.4,0.001,0.011,30,17.3,83.1,CALM,0.1
R5,2023,11,5,3,0,0.034,0.013,0.4,0.002,0.013,28,16.5,86.7,CALM,0.1
R5,2023,11,5,4,0.001,0.037,0.012,0.4,0.001,0.011,30,16.1,86.9,CALM,0
R5,2023,11,5,5,0.001,0.032,0.013,0.3,0.001,0.009,27,15.9,88.1,CALM,0
R5,2023,11,5,6,0.001,0.032,0.009,0.5,0.002,0.011,28,15.6,89.7,NE,0.3
R5,2023,11,5,7,0.001,0.038,0.01,0.5,0.003,0.011,31,15.8,86.9,E,0.6
R5,2023,11,5,8,0.001,0.032,0.013,0.4,0.004,0.011,26,17.1,72.6,ENE,1.8
R5,2023,11,5,9,0.001,0.027,0.024,0.4,0.003,0.008,23,20.7,54.7,NE,0.7
R5,2023,11,5,10,0.001,0.031,0.034,0.3,0.003,0.011,24,22.1,57.1,SSE,0.9
R5,2023,11,5,11,0.001,0.033,0.044,0.4,0.003,0.011,25,24.1,52,WSW,2.1
R5,2023,11,5,12,0.001,0.034,0.056,0.4,0.002,0.009,27,24.9,49.1,SSW,1.8
R5,2023,11,5,13,0.001,0.029,0.064,0.3,0,0.005,21,25.7,47.5,SW,1.8
R5,2023,11,5,14,0.001,0.027,0.068,0.3,0.001,0.005,19,26,46.1,SW,1.4
R5,2023,11,5,15,0.001,0.023,0.063,0.2,0,0.004,20,25.5,49.9,SSE,1
R5,2023,11,5,16,0.001,0.02,0.063,0.2,0,0.004,17,24.9,50.1,SSE,1.4
R5,2023,11,5,17,0.001,0.018,0.06,0.3,0,0.005,17,23.8,50.3,SSE,1.1
R5,2023,11,5,18,0.001,0.024,0.055,0.3,0.001,0.006,18,22.8,57,SSE,0.8
R5,2023,11,5,19,0.001,0.027,0.051,0.3,0.001,0.007,21,22.5,58.9,SE,1.3
R5,2023,11,5,20,0.001,0.024,0.051,0.3,0.001,0.006,21,22.2,59.6,ESE,0.6
R5,2023,11,5,21,0.001,0.024,0.045,0.3,0.001,0.009,20,21.6,62.1,E,0.7
R5,2023,11,5,22,0,0.024,0.04,0.3,0.001,0.009,21,20.4,68.3,E,0.8
R5,2023,11,5,23,0.001,0.029,0.029,0.5,0.001,0.011,24,20.1,71.2,ENE,0.8
R5,2023,11,5,24,0.001,0.026,0.025,0.4,0.001,0.011,20,19.8,71,E,0.8
R5,2023,11,6,1,0,0.016,0.037,0.2,0.001,0.005,13,21.3,64.5,ESE,1.8
R5,2023,11,6,2,0.001,0.014,0.041,0.2,0.001,0.004,10,21.3,68.8,SE,1.7
R5,2023,11,6,3,0.001,0.009,0.041,0.2,0.001,0.002,8,20.7,72.4,ESE,1.6
R5,2023,11,6,4,0.001,0.009,0.04,0.2,0.001,0.002,8,20.9,72.3,ESE,2.3
R5,2023,11,6,5,0,0.01,0.04,0.2,0.001,0.004,7,20.7,73.7,ESE,1.4
R5,2023,11,6,6,0.001,0.01,0.035,0.2,0.001,0.008,9,21,73.7,ESE,1.8
R5,2023,11,6,7,0,0.012,0.033,0.2,0.006,0.013,6,21.6,71.1,ESE,2.1
R5,2023,11,6,8,0,0.008,0.035,0.2,0.004,0.009,4,22.8,67.7,SE,3.2
R5,2023,11,6,9,0,0.01,0.038,0.2,0.005,0.007,5,24.6,60.3,SE,3.7
R5,2023,11,6,10,0.001,0.012,0.042,0.2,0.003,0.006,5,25.7,58.6,SE,4.2
R5,2023,11,6,11,0.001,0.01,0.044,0.2,0.003,0.004,5,25.7,59.7,S,3.4
R5,2023,11,6,12,0.001,0.011,0.043,0.2,0.002,0.005,8,25.1,62.1,SSE,3.7
R5,2023,11,6,13,0,0.011,0.045,0.2,0.002,0.004,6,26.3,53.7,SSE,4.7
R5,2023,11,6,14,0,0.01,0.044,0.2,0.002,0.005,5,25.4,59.4,SSE,4.3
R5,2023,11,6,15,0.001,0.013,0.041,0.1,0.002,0.004,8,24.4,68.2,SE,3.5
R5,2023,11,6,16,0,0.016,0.035,0.2,0.002,0.008,25,21.9,85.8,SSE,2.2
R5,2023,11,6,17,0,0.013,0.032,0.2,0.003,0.008,6,21.8,86.4,SE,2
R5,2023,11,6,18,0.001,0.013,0.033,0.2,0.002,0.006,6,21.7,84.9,SE,2.6
R5,2023,11,6,19,0,0.013,0.034,0.2,0.001,0.005,5,21.6,89.5,SE,3.2
R5,2023,11,6,20,0,0.018,0.034,0.2,0,0.004,6,21.8,92.6,SSE,4.7
R5,2023,11,6,21,0,0.014,0.034,0.2,0,0.004,5,21.6,95.7,SSE,4
R5,2023,11,6,22,0,0.009,0.033,0.1,0,0.004,6,22.2,94.5,SSE,3.4
R5,2023,11,6,23,0,0.013,0.031,0.1,0,0.003,5,22.2,94,SSE,3.8
R5,2023,11,6,24,0,0.011,0.029,0.1,0,0.003,6,22.4,92.6,S,2.9
R5,2023,11,7,1,0,0.012,0.029,0.1,0,0.003,4,22.8,91.2,S,2.5
R5,2023,11,7,2,0.001,0.011,0.03,0.1,0.001,0.003,5,22.8,92.3,SSE,2.8
R5,2023,11,7,3,0,0.016,0.028,0.1,0,0.002,8,22.8,91.7,S,2.5
R5,2023,11,7,4,0,0.014,0.028,0.1,0.001,0.003,4,22.7,94.2,SSW,3.5
R5,2023,11,7,5,0,0.012,0.025,0.1,0.001,0.004,7,22.1,99,SW,2.2
R5,2023,11,7,6,0,0.007,0.02,0.2,0.001,0.007,4,21.3,90.1,WSW,3.9
R5,2023,11,7,7,0,0.008,0.024,0.3,0.003,0.01,3,21,85.8,WNW,2.3
R5,2023,11,7,8,0,0.011,0.027,0.3,0.002,0.01,5,21,80.1,NW,2.1
R5,2023,11,7,9,0,0.01,0.029,0.3,0.005,0.01,7,20.9,69.6,N,1.8
R5,2023,11,7,10,0,0.014,0.035,0.2,0.003,0.01,7,20.1,63.5,NNW,2.2
R5,2023,11,7,11,0,0.017,0.035,0.2,0.006,0.009,10,20.4,53.6,NNW,3.8
R5,2023,11,7,12,0,0.016,0.04,0.2,0.004,0.008,13,21,47.9,N,3.5
R5,2023,11,7,13,0,0.018,0.045,0.2,0.002,0.005,9,21.6,47.3,NNW,2.3
R5,2023,11,7,14,0,0.019,0.045,0.2,0.003,0.005,13,21.9,45,NNW,3.9
R5,2023,11,7,15,0,0.02,0.046,0.2,0.001,0.004,12,20.7,45.1,N,5.5
R5,2023,11,7,16,0,0.018,0.045,0.2,0.001,0.004,10,19.8,49.2,NNW,4.1
R5,2023,11,7,17,0,0.018,0.044,0.2,0,0.004,12,18.5,52.3,NNW,3.9
R5,2023,11,7,18,0,0.017,0.042,0.2,0,0.005,10,17.9,52.8,N,2.8
R5,2023,11,7,19,0.001,0.017,0.039,0.2,0,0.006,11,17.4,53.6,NNW,2.2
R5,2023,11,7,20,0,0.016,0.037,0.2,0,0.007,9,16.7,57.4,NNW,1.6
R5,2023,11,7,21,0,0.012,0.035,0.2,0,0.008,9,16.5,58.8,NNW,1.4
R5,2023,11,7,22,0,0.015,0.033,0.2,0.001,0.008,10,16.2,62.4,NW,1.7
R5,2023,11,7,23,0,0.013,0.031,0.2,0.001,0.008,8,16.1,62.1,NNE,1.7
R5,2023,11,7,24,0,0.009,0.034,0.2,0.001,0.006,7,15.7,62.4,NNE,1.1
R5,2023,11,8,1,0,0.01,0.032,0.2,0,0.007,8,15.3,64,NNW,1.9
R5,2023,11,8,2,0,0.011,0.03,0.2,0,0.007,7,14.6,67.9,N,1.2
R5,2023,11,8,3,0.001,0.012,0.029,0.2,0,0.007,8,14.1,69.8,NNE,1.2
R5,2023,11,8,4,0.001,0.009,0.026,0.2,0,0.009,6,13.8,71.6,NW,1
R5,2023,11,8,5,0.001,0.01,0.022,0.2,0.001,0.013,7,13.2,74.3,N,0.8
R5,2023,11,8,6,0.001,0.012,0.014,0.2,0.002,0.017,7,12.2,78.1,ENE,0.8
R5,2023,11,8,7,0.001,0.02,0.005,0.6,0.013,0.025,15,12.3,75.5,ENE,1
R5,2023,11,8,8,0.002,0.021,0.007,0.4,0.023,0.022,17,14.2,59.6,NE,0.9
R5,2023,11,8,9,0.001,0.014,0.016,0.3,0.017,0.014,11,16.8,48.3,NNE,1.7
R5,2023,11,8,10,0.001,0.012,0.03,0.2,0.005,0.01,4,18.9,43.8,N,2.8
R5,2023,11,8,11,0.001,0.008,0.035,0.2,0.003,0.005,6,20,40.9,NNW,2
R5,2023,11,8,12,0.001,0.009,0.037,0.2,0.006,0.007,7,20.7,39.4,NNE,1.9
R5,2023,11,8,13,0.001,0.013,0.045,0.2,0.004,0.009,7,21.2,36.7,NNE,1.5
R5,2023,11,8,14,0,0.011,0.048,0.2,0.002,0.006,4,22,38,WSW,1.4
R5,2023,11,8,15,0.001,0.009,0.046,0.2,0.004,0.006,4,22.2,36.4,WSW,1.5
R5,2023,11,8,16,0.001,0.01,0.046,0.2,0.003,0.009,5,21.9,36.7,S,0.7
R5,2023,11,8,17,0.001,0.01,0.038,0.2,0.004,0.015,11,20.3,45,WSW,0.6
R5,2023,11,8,18,0.001,0.014,0.02,0.5,0.006,0.027,11,18.9,53.5,ESE,0.3
R5,2023,11,8,19,0.001,0.018,0.011,0.7,0.007,0.038,11,17.7,59.1,E,1
R5,2023,11,8,20,0.001,0.023,0.009,0.8,0.003,0.033,13,16.4,71.5,NNE,0.5
R5,2023,11,8,21,0.001,0.019,0.012,0.5,0.002,0.025,15,15.6,77.2,NE,1.3
R5,2023,11,8,22,0.001,0.018,0.014,0.4,0.002,0.022,15,15.1,78.8,ENE,2.1
R5,2023,11,8,23,0.001,0.017,0.015,0.3,0.001,0.016,14,14.7,79.4,ENE,0.8
R5,2023,11,8,24,0.001,0.018,0.012,0.3,0.001,0.018,14,14.4,82.3,NE,0.9
R5,2023,11,9,1,***,0.019,0.018,***,***,***,13,14.7,77.9,NE,2.2
R5,2023,11,9,2,0.001,0.017,0.019,0.2,0.001,0.009,14,14.9,79.9,WNW,0.4
R5,2023,11,9,3,0.001,0.019,0.002,0.3,0.011,0.025,17,14.4,81.6,NW,0.5
R5,2023,11,9,4,0.001,0.017,0.001,0.3,0.009,0.024,17,14,86.9,WSW,0.5
R5,2023,11,9,5,0.001,0.021,0.002,0.3,0.006,0.021,15,13.9,84.7,SW,0.5
R5,2023,11,9,6,0.001,0.019,0.001,0.3,0.011,0.02,15,14.1,84.9,SSE,0.5
R5,2023,11,9,7,0.001,0.02,0.002,0.4,0.03,0.02,17,14.6,80.9,WSW,0.5
R5,2023,11,9,8,0.001,0.021,0.003,0.4,0.026,0.019,15,15.6,72.4,CALM,0.2
R5,2023,11,9,9,0.001,0.021,0.006,0.4,0.021,0.022,15,17,66,CALM,0.2
R5,2023,11,9,10,0.001,0.023,0.009,0.4,0.023,0.022,18,18.5,61.7,E,1
R5,2023,11,9,11,0.002,0.028,0.017,0.4,0.017,0.023,22,20.4,52.5,WSW,1
R5,2023,11,9,12,0.001,0.021,0.029,0.3,0.009,0.021,14,21.9,49.4,SE,0.7
R5,2023,11,9,13,0.001,0.016,0.04,0.2,0.005,0.012,10,22.5,50.1,SW,1.2
R5,2023,11,9,14,0.001,0.017,0.044,0.2,0.003,0.01,13,22.2,53.1,SSW,1.2
R5,2023,11,9,15,0.001,0.018,0.051,0.2,0.003,0.012,15,22.5,54.7,S,1.1
R5,2023,11,9,16,0.001,0.015,0.05,0.2,0.003,0.011,12,21.8,58.8,WSW,1.1
R5,2023,11,9,17,0.002,0.029,0.032,0.5,0.005,0.029,22,21,64.5,W,1.3
R5,2023,11,9,18,0.004,0.029,0.031,0.5,0.001,0.03,20,20.4,67.4,W,0.3
R5,2023,11,9,19,0.003,0.025,0.029,0.5,0.001,0.026,20,20.1,67.8,WNW,0.9
R5,2023,11,9,20,0.003,0.023,0.032,0.4,0.001,0.02,18,20.1,69.2,ESE,0.3
R5,2023,11,9,21,0.002,0.029,0.013,0.5,0.002,0.032,21,19.5,74.1,E,0.6
R5,2023,11,9,22,0.002,0.028,0.011,0.5,0.003,0.028,20,19.1,76.6,ESE,0.4
R5,2023,11,9,23,0.002,0.025,0.013,0.4,0.001,0.022,20,18.6,76.4,ENE,1.4
R5,2023,11,9,24,0.002,0.026,0.013,0.4,0.001,0.02,21,18.5,75.3,E,0.7
R5,2023,11,10,1,0.002,0.029,0.01,0.4,0.001,0.02,22,18.2,84.4,NNW,0.9
R5,2023,11,10,2,0.002,0.027,0.016,0.4,0.001,0.02,23,17.3,91.9,SW,0.5
R5,2023,11,10,3,0.001,0.024,0.011,0.4,0.001,0.018,22,16.9,93,ENE,1.2
R5,2023,11,10,4,0.001,0.019,0.012,0.2,0.001,0.012,16,16.7,93.2,NE,1.1
R5,2023,11,10,5,0.001,0.019,0.011,0.2,0.001,0.013,14,16.9,94,NNE,0.6
R5,2023,11,10,6,0.001,0.017,0.008,0.2,0.003,0.015,13,16.5,90.5,ENE,1.6
R5,2023,11,10,7,0.001,0.018,0.007,0.3,0.009,0.016,13,17,93.2,W,0.7
R5,2023,11,10,8,0.001,0.019,0.002,0.3,0.013,0.023,15,16.9,93,N,0.6
R5,2023,11,10,9,0.001,0.02,0.003,0.4,0.018,0.023,17,17.1,94.3,CALM,0.1
R5,2023,11,10,10,0.001,0.014,0.003,0.3,0.025,0.022,12,17,94.7,CALM,0
R5,2023,11,10,11,0.001,0.016,0.004,0.3,0.021,0.024,14,17.3,96.5,SE,1.2
R5,2023,11,10,12,0.001,0.01,0.012,0.3,0.012,0.022,9,18.2,92.9,S,1.4
R5,2023,11,10,13,0.001,0.008,0.024,0.2,0.007,0.013,7,18.3,92.9,SSE,1.1
R5,2023,11,10,14,0,0.007,0.019,0.3,0.008,0.017,7,18.5,94.3,CALM,0.2
R5,2023,11,10,15,0.001,0.006,0.017,0.3,0.006,0.018,4,18.5,95.6,E,0.8
R5,2023,11,10,16,0.001,0.007,0.018,0.2,0.005,0.018,5,18.5,95.8,WSW,0.7
R5,2023,11,10,17,0.001,0.008,0.014,0.3,0.002,0.025,6,17.7,97.4,NNW,1.9
R5,2023,11,10,18,0.001,0.008,0.013,0.3,0.005,0.023,6,17.4,98.2,NE,0.4
R5,2023,11,10,19,0.001,0.006,0.023,0.3,0.001,0.015,5,17.3,96.5,E,0.4
R5,2023,11,10,20,0.001,0.006,0.021,0.3,0.002,0.014,6,17.4,96.2,CALM,0
R5,2023,11,10,21,0.001,0.004,0.02,0.3,0.001,0.015,3,17.4,96.1,NNE,0.5
R5,2023,11,10,22,0.001,0.007,0.016,0.3,0.001,0.017,4,17.3,96.6,CALM,0
R5,2023,11,10,23,0.001,0.005,0.015,0.3,0.001,0.017,5,17.1,94,N,1.6
R5,2023,11,10,24,0.001,0.006,0.02,0.3,0.001,0.013,5,16.9,94.1,NW,1.6
R5,2023,11,11,1,0.001,0.009,0.013,0.3,0.001,0.014,9,16.5,94.4,NNW,2
R5,2023,11,11,2,0,0.003,0.025,0.2,0,0.006,1,16,77.1,NNW,3.3
R5,2023,11,11,3,0,0.003,0.033,0.2,0,0.003,1,15,76.9,N,2.3
R5,2023,11,11,4,0.001,0,0.031,0.2,0,0.003,-1,14.4,63.4,N,4.2
R5,2023,11,11,5,0,0.001,0.035,0.2,0,0.002,1,13.8,59.6,N,3.2
R5,2023,11,11,6,0,0.003,0.034,0.2,0,0.003,2,13.4,56.6,N,4.4
R5,2023,11,11,7,0.001,0.003,0.033,0.2,0,0.004,2,12.9,59,N,1.9
R5,2023,11,11,8,0.001,0,0.033,0.2,0.001,0.005,-2,13.5,50.4,N,3
R5,2023,11,11,9,0.001,0.002,0.032,0.2,0.005,0.005,1,13.7,51.6,NNW,2.9
R5,2023,11,11,10,0.001,0,0.032,0.2,0.003,0.005,3,14.7,46.7,NNW,3.6
R5,2023,11,11,11,0.001,0.001,0.034,0.2,0.003,0.004,0,15.8,45,NNW,3.2
R5,2023,11,11,12,0,0.001,0.036,0.2,0.005,0.004,4,17.1,40,NNW,3.6
R5,2023,11,11,13,0.001,0.002,0.037,0.2,0.002,0.003,3,17.4,40.5,N,2.9
R5,2023,11,11,14,0,0.002,0.037,0.2,0.002,0.002,2,17.3,38.9,NNE,3.9
R5,2023,11,11,15,0,0.004,0.037,0.2,0.002,0.004,4,17.1,39.3,NNE,3.5
R5,2023,11,11,16,0,0.004,0.037,0.2,0.001,0.003,3,15.8,41.5,N,3
R5,2023,11,11,17,0,0.004,0.036,0.2,0.001,0.003,4,14.9,43.3,N,2.3
R5,2023,11,11,18,0.001,0.003,0.031,0.2,0.001,0.007,5,14.1,46.6,NNE,1.8
R5,2023,11,11,19,0,0.002,0.031,0.2,0.001,0.006,4,13.2,47.6,NNE,2.3
R5,2023,11,11,20,0,0.004,0.032,0.2,0,0.005,3,12.4,51.4,N,1.9
R5,2023,11,11,21,0,0.004,0.032,0.2,0,0.004,4,11.9,52.5,N,2.1
R5,2023,11,11,22,0.001,0.003,0.029,0.2,0.001,0.006,6,11.2,56.7,N,1.7
R5,2023,11,11,23,0.001,0.005,0.027,0.2,0,0.005,5,10.7,60.5,N,1.8
R5,2023,11,11,24,0.001,0.008,0.025,0.2,0,0.006,6,10.3,61.7,NNE,1.2
R5,2023,11,12,1,0.001,0.01,0.026,0.2,0,0.005,8,10,63.1,ENE,1.9
R5,2023,11,12,2,0.001,0.009,0.023,0.2,0,0.006,9,9.8,66.6,ENE,1.6
R5,2023,11,12,3,0.001,0.004,0.022,0.2,0,0.005,3,9.6,67.1,CALM,0.1
R5,2023,11,12,4,0,0.007,0.02,0.2,0.001,0.006,6,10,65.9,NNW,0.9
R5,2023,11,12,5,0.001,0.009,0.016,0.2,0.001,0.008,7,9.5,70.5,NNW,0.7
R5,2023,11,12,6,0.001,0.004,0.014,0.2,0,0.007,7,9.6,73.5,NW,0.9
R5,2023,11,12,7,0,0.009,0.011,0.2,0.001,0.008,7,9.6,74.7,NE,1
R5,2023,11,12,8,0.001,0.007,0.007,0.2,0.003,0.008,7,10.6,73.4,WNW,1.1
R5,2023,11,12,9,0.001,0.008,0.008,0.3,0.004,0.01,8,10.9,69.8,WNW,1
R5,2023,11,12,10,0.002,0.006,0.01,0.2,0.004,0.008,6,11.9,67.5,WSW,1.3
R5,2023,11,12,11,0.001,0.008,0.012,0.3,0.006,0.008,8,13.1,62.3,W,1.1
R5,2023,11,12,12,0.001,0.008,0.014,0.3,0.007,0.011,6,14.3,54.5,WNW,0.6
R5,2023,11,12,13,0.001,0.01,0.019,0.3,0.005,0.01,8,15.3,50.1,SW,0.9
R5,2023,11,12,14,0.001,0.009,0.028,0.2,0.002,0.006,7,16,51.5,W,1.2
R5,2023,11,12,15,0.001,0.006,0.032,0.2,0.001,0.005,5,16,56.8,WSW,1.6
R5,2023,11,12,16,0.001,0.005,0.032,0.2,0.001,0.006,8,15.5,61,WSW,1.3
R5,2023,11,12,17,0.001,0.01,0.031,0.2,0.001,0.006,7,14.9,63.3,WSW,0.8
R5,2023,11,12,18,0.001,0.007,0.028,0.2,0.001,0.008,7,14.9,61.6,WNW,1.1
R5,2023,11,12,19,0.001,0.006,0.032,0.2,0,0.006,7,12.9,80.8,WNW,2.5
R5,2023,11,12,20,0.001,0.005,0.034,0.2,0,0.005,4,12.5,83.7,WNW,1.6
R5,2023,11,12,21,0,0.004,0.036,0.2,0,0.004,2,12.3,79.4,NW,0.7
R5,2023,11,12,22,0.001,0.005,0.035,0.2,0.001,0.004,2,11.6,79.9,WSW,1.4
R5,2023,11,12,23,0,0.007,0.035,0.2,0,0.005,5,11.9,69.2,E,2
R5,2023,11,12,24,0.001,0.005,0.037,0.2,0.001,0.003,3,11.5,67.1,NW,1.6
R5,2023,11,13,1,0,0.006,0.034,0.2,0,0.005,5,10.9,69.7,W,0.9
R5,2023,11,13,2,0,0.005,0.029,0.2,0,0.004,5,10.3,77.6,N,1.3
R5,2023,11,13,3,0,0.002,0.028,0.2,0,0.004,2,9.6,77.1,N,2
R5,2023,11,13,4,0,0.001,0.029,0.2,0,0.003,2,9.6,82.7,NNW,1.1
R5,2023,11,13,5,0.001,0,0.025,0.2,0,0.006,0,9.8,71.9,NNE,1.7
R5,2023,11,13,6,0,0.003,0.026,0.2,0,0.006,2,9.6,79.5,NNW,2
R5,2023,11,13,7,0,0.005,0.024,0.2,0.001,0.01,4,9.8,81.8,NW,2.2
R5,2023,11,13,8,0,0.001,0.024,0.2,0.002,0.01,2,9.9,64.4,N,3.4
R5,2023,11,13,9,0,0.001,0.026,0.2,0.004,0.009,3,10.8,63.1,NW,2.1
R5,2023,11,13,10,0.001,0.002,0.029,0.2,0.005,0.008,5,12.9,44.8,NNW,3.2
R5,2023,11,13,11,0,0.002,0.034,0.2,0.005,0.006,1,14.1,38.6,NNE,4.9
R5,2023,11,13,12,0.001,0.002,0.037,0.2,0.003,0.005,2,15.3,36.1,NNW,3.3
R5,2023,11,13,13,0,0.001,0.038,0.2,0.002,0.004,0,14.6,37.4,NW,4
R5,2023,11,13,14,0,0.005,0.038,0.2,0.003,0.004,1,14.5,36.1,NNW,4.2
R5,2023,11,13,15,0,0.004,0.039,0.1,0.001,0.004,0,14.3,37.5,NNW,3.7
R5,2023,11,13,16,0,0.007,0.038,0.2,0.001,0.004,4,12.8,44.9,NW,3.5
R5,2023,11,13,17,0,0.006,0.038,0.2,0.001,0.004,8,11,49.8,NNW,3.5
R5,2023,11,13,18,0,0.004,0.037,0.2,0.001,0.005,5,10.2,53.8,NW,1.9
R5,2023,11,13,19,0,0.008,0.033,0.2,0,0.008,4,9.7,55.3,N,1.4
R5,2023,11,13,20,0.001,0.005,0.03,0.2,0.001,0.009,6,9.3,55.6,NNW,1.4
R5,2023,11,13,21,0.001,0.003,0.029,0.2,0.001,0.01,6,8.8,59,N,0.7
R5,2023,11,13,22,0,0.008,0.022,0.3,0.001,0.015,7,8.4,59.7,NNE,1
R5,2023,11,13,23,0.001,0.007,0.028,0.2,0.001,0.009,5,7.6,63.3,NW,0.6
R5,2023,11,13,24,0,0.005,0.026,0.2,0.001,0.009,4,7.6,65,N,0.8
R5,2023,11,14,1,0,0.005,0.023,0.2,0.001,0.01,7,7.3,64.2,NNE,1.5
R5,2023,11,14,2,0,0.007,0.015,0.2,0.002,0.013,9,6.2,75.5,NNW,0.3
R5,2023,11,14,3,0,0.007,0.016,0.2,0.001,0.012,6,5.6,75.9,E,1.6
R5,2023,11,14,4,0.001,0.01,0.009,0.2,0.002,0.015,11,5.5,76.9,E,0.8
R5,2023,11,14,5,0.001,0.01,0.005,0.2,0.004,0.02,7,5.2,77.8,ENE,1
R5,2023,11,14,6,0.001,0.005,0.004,0.2,0.004,0.019,7,4.8,77.3,ENE,2.2
R5,2023,11,14,7,0.001,0.008,0.002,0.3,0.015,0.023,10,4.8,79.7,E,1
R5,2023,11,14,8,0.002,0.013,0.008,0.4,0.018,0.021,8,7.4,58.9,NE,1.7
R5,2023,11,14,9,0.001,0.011,0.013,0.3,0.016,0.015,9,10.5,47.1,NE,0.8
R5,2023,11,14,10,0.001,0.007,0.025,0.2,0.009,0.012,5,12.9,49.7,NNW,1.7
R5,2023,11,14,11,0.001,0.005,0.029,0.2,0.005,0.009,6,13.7,48.3,N,1.6
R5,2023,11,14,12,0.001,0.006,0.03,0.2,0.008,0.011,6,15.6,46.4,SW,1.3
R5,2023,11,14,13,0.001,0.004,0.036,0.2,0.006,0.007,3,16.4,46,W,2.6
R5,2023,11,14,14,0.001,0.003,0.038,0.2,0.004,0.006,5,16.5,48.5,W,2.8
R5,2023,11,14,15,0.001,0.004,0.038,0.2,0.003,0.007,4,16.4,49.9,W,2.6
R5,2023,11,14,16,0.001,0.007,0.036,0.2,0.003,0.008,4,15.3,54,WNW,3.1
R5,2023,11,14,17,0.001,0.006,0.034,0.2,0.002,0.008,7,13.4,63.8,WNW,2.1
R5,2023,11,14,18,0.001,0.006,0.031,0.2,0.001,0.009,5,12.7,67.2,WNW,1.2
R5,2023,11,14,19,0.001,0.004,0.028,0.2,0.001,0.01,4,12.2,71.3,NW,1.2
R5,2023,11,14,20,0.001,0.005,0.022,0.2,0.001,0.014,4,11.8,69.8,NNW,0.9
R5,2023,11,14,21,0,0.006,0.019,0.3,0.002,0.016,6,10.6,75,NW,0.5
R5,2023,11,14,22,0.001,0.007,0.008,0.4,0.004,0.021,8,9.4,84.4,CALM,0.2
R5,2023,11,14,23,0,0.008,0.003,0.5,0.004,0.022,9,8.5,86,NNE,0.5
R5,2023,11,14,24,0.001,0.007,0.005,0.3,0.004,0.017,7,8.3,83.7,ENE,1.1
R5,2023,11,15,1,0.001,0.009,0.003,0.3,0.003,0.017,9,7.9,85.5,N,0.3
R5,2023,11,15,2,0.001,0.01,0.006,0.2,0.001,0.012,9,7.7,84.9,ENE,0.9
R5,2023,11,15,3,0,0.009,0.005,0.2,0.002,0.012,9,7.5,81.9,ENE,1.5
R5,2023,11,15,4,0.001,0.007,0.005,0.2,0.001,0.012,6,7.2,84.8,NE,0.7
R5,2023,11,15,5,0.001,0.009,0.002,0.3,0.01,0.014,10,6.3,87.7,SSE,0.3
R5,2023,11,15,6,0,0.008,0.001,0.2,0.012,0.016,9,6.6,82.5,ENE,1.8
R5,2023,11,15,7,0,0.008,0.002,0.3,0.022,0.016,6,6.9,84.1,NW,0.4
R5,2023,11,15,8,0.001,0.009,0.004,0.4,0.026,0.016,8,8.9,65.9,ENE,0.5
R5,2023,11,15,9,0.001,0.008,0.006,0.4,0.024,0.015,8,9.9,62.3,NNW,0.4
R5,2023,11,15,10,0.001,0.01,0.008,0.3,0.021,0.016,8,11.3,60.9,SE,0.6
R5,2023,11,15,11,0.001,0.01,0.011,0.3,0.019,0.018,6,12.7,52.6,NNE,0.9
R5,2023,11,15,12,0.001,0.009,0.02,0.2,0.01,0.013,7,14.6,49.9,NE,1.2
R5,2023,11,15,13,0.001,0.008,0.028,0.2,0.003,0.008,6,15.3,49.8,NW,1.8
R5,2023,11,15,14,0.001,0.01,0.033,0.2,0.004,0.011,8,15.6,51.8,NE,0.9
R5,2023,11,15,15,0.001,0.01,0.036,0.2,0.003,0.01,7,16.4,49.2,WNW,1.2
R5,2023,11,15,16,0.001,0.01,0.033,0.2,0.003,0.013,5,16.2,51.6,NNW,1.3
R5,2023,11,15,17,0.001,0.011,0.033,0.2,0.001,0.012,11,15.3,55.4,NW,0.9
R5,2023,11,15,18,0.001,0.015,0.018,0.4,0.006,0.026,11,14.4,63.2,WNW,1
R5,2023,11,15,19,0.001,0.018,0.02,0.3,0.001,0.022,14,13.5,67.5,NW,0.7
R5,2023,11,15,20,0.001,0.014,0.019,0.3,0.001,0.021,12,12.5,72.7,NW,0.6
R5,2023,11,15,21,0.001,0.017,0.007,0.6,0.006,0.027,13,10.5,80.6,CALM,0.1
R5,2023,11,15,22,0.001,0.016,0.002,0.6,0.008,0.025,14,9.4,85.3,N,0.6
R5,2023,11,15,23,0.001,0.012,0.005,0.4,0.003,0.02,12,9.3,82.5,ENE,1.3
R5,2023,11,15,24,0.001,0.014,0.006,0.3,0.002,0.018,11,8.7,85.5,NW,0.4
R5,2023,11,16,1,***,0.01,0.007,***,***,***,16,8.3,86,CALM,0.1
R5,2023,11,16,2,0.001,0.012,0.005,0.3,0.002,0.015,14,8.3,82.2,NE,1.3
R5,2023,11,16,3,0.001,0.01,0.006,0.2,0.002,0.013,8,7.9,81.5,ENE,1.2
R5,2023,11,16,4,0.001,0.009,0.007,0.2,0.001,0.011,7,7.8,80,ENE,1.3
R5,2023,11,16,5,0.001,0.009,0.005,0.2,0.002,0.012,9,7.3,82.1,ESE,0.4
R5,2023,11,16,6,0,0.009,0.002,0.2,0.011,0.015,8,7,86.4,NNE,0.3
R5,2023,11,16,7,0.001,0.009,0.001,0.4,0.033,0.018,10,7.2,85.4,N,0.4
R5,2023,11,16,8,0.001,0.015,0.003,0.4,0.038,0.018,9,10.1,59.2,E,0.3
R5,2023,11,16,9,0.001,0.012,0.007,0.4,0.03,0.016,10,12.1,55,E,1.3